Tracking 25193 objects as of 18-Jan-2022
HD Live streaming from Space Station
objects crossing your sky now

STARLINK-1283

Track STARLINK-1283 now!
10-day predictions
STARLINK-1283 is classified as:


NORAD ID: 45389
Int'l Code: 2020-019AF
Perigee: 553.5 km
Apogee: 555.3 km
Inclination: 53.1 °
Period: 95.6 minutes
Semi major axis: 6925 km
RCS: Unknown
Launch date: March 18, 2020
Source: United States (US)
Launch site: AIR FORCE EASTERN TEST RANGE (AFETR)
aabbcc
Your satellite tracking list
Your tracking list is empty




NASA's NSSDC Master Catalog

Two Line Element Set (TLE):
1 45389U 20019AF  22017.53360303 -.00004186  00000-0 -26239-3 0  9992
2 45389  53.0559  94.9389 0001288  73.9964 286.1167 15.06385524102099
Source of the keplerian elements: AFSPC